Mukilteo, WA

8:50 PM PST on February 08, 2016 (GMT -0800)
Snohomish County

Weather History for KPAE - May, 2014

Change the Weather History Date:

Monday, May 26, 2014

  Actual Average Record
Temperature  
Mean Temperature 55 °F -  
Max Temperature 61 °F 64 °F 82 °F (2005)
Min Temperature 51 °F 48 °F 39 °F (1951)
Degree Days  
Heating Degree Days 10    
Growing Degree Days 5 (Base 50)    
Moisture  
Dew Point 48 °F    
Average Humidity 83    
Maximum Humidity 97    
Minimum Humidity 60    
Precipitation  
Precipitation 0.04 in - - ()
Sea Level Pressure  
Sea Level Pressure 30.09 in    
Wind  
Wind Speed 8 mph (SW)    
Max Wind Speed 13 mph    
Max Gust Speed -    
Visibility 9 miles    
Events Rain    
Averages and records for this station are not official NWS values.
T = Trace of Precipitation, MM = Missing Value Source: NWS Daily Summary

Daily Weather History Graph

Daily Weather History Graph

Search for Another Location

Airport or City:

Trip Planner

Search our weather history database for the weather conditions in past years. The results will help you decide how hot, cold, wet, or windy it might be!

Date:

Astronomy

May. 26, 2014 Rise Set
Actual Time 5:18 AM PDT 8:54 PM PDT
Civil Twilight 4:39 AM PDT 9:33 PM PDT
Nautical Twilight 3:47 AM PDT 10:25 PM PDT
Astronomical Twilight 2:37 AM PDT 11:37 PM PDT
Moon 4:15 AM PDT (5/26) 6:53 PM PDT (5/26)
Length of Visible Light 16h 53m
Length of Day
15h 35m
Waning Crescent, 4% of the Moon is Illuminated
May 26
Waning Crescent
May 28
New
Jun 5
First Quarter
Jun 12
Full
Jun 19
Last Quarter

Hourly Weather History & Observations

Time (PDT) Temp. Dew Point Humidity Pressure Visibility Wind Dir Wind Speed Gust Speed Precip Events Conditions
12:38 AM 53.1 °F 51.1 °F 93% 30.00 in 10.0 mi South 6.9 mph - 0.00 in   Overcast
12:53 AM 53.1 °F 51.1 °F 93% 30.00 in 10.0 mi SSE 8.1 mph - 0.00 in   Overcast
1:39 AM 53.1 °F 50.0 °F 89% 30.00 in 10.0 mi SSE 6.9 mph - N/A   Overcast
1:53 AM 53.1 °F 50.0 °F 89% 30.01 in 10.0 mi SSE 8.1 mph - N/A   Overcast
2:21 AM 53.1 °F 51.1 °F 93% 30.00 in 10.0 mi South 6.9 mph - N/A   Overcast
2:53 AM 53.1 °F 50.0 °F 89% 30.00 in 10.0 mi South 8.1 mph - N/A   Overcast
3:32 AM 53.1 °F 50.0 °F 89% 30.00 in 10.0 mi South 8.1 mph - N/A   Overcast
3:53 AM 53.1 °F 50.0 °F 89% 30.00 in 10.0 mi South 9.2 mph - N/A   Overcast
4:50 AM 51.8 °F 50.0 °F 94% 30.01 in 10.0 mi South 8.1 mph - N/A   Overcast
4:53 AM 52.0 °F 50.0 °F 93% 30.02 in 10.0 mi South 6.9 mph - N/A   Overcast
5:04 AM 52.0 °F 50.0 °F 93% 30.01 in 10.0 mi South 5.8 mph - N/A   Overcast
5:12 AM 52.0 °F 50.0 °F 93% 30.01 in 10.0 mi South 8.1 mph - N/A   Overcast
5:53 AM 53.1 °F 50.0 °F 89% 30.02 in 10.0 mi South 9.2 mph - N/A   Overcast
6:23 AM 53.1 °F 50.0 °F 89% 30.03 in 10.0 mi South 10.4 mph - N/A   Overcast
6:53 AM 53.1 °F 48.9 °F 86% 30.04 in 10.0 mi South 12.7 mph - N/A   Overcast
6:56 AM 53.1 °F 48.9 °F 86% 30.04 in 10.0 mi South 12.7 mph - N/A   Overcast
6:59 AM 53.1 °F 48.9 °F 86% 30.04 in 10.0 mi South 11.5 mph - N/A   Overcast
7:53 AM 53.1 °F 50.0 °F 89% 30.06 in 10.0 mi SSW 11.5 mph - N/A   Overcast
8:53 AM 53.1 °F 51.1 °F 93% 30.08 in 5.0 mi SW 8.1 mph - 0.00 in Rain Light Rain
9:00 AM 52.0 °F 51.1 °F 97% 30.07 in 1.0 mi West 5.8 mph - 0.00 in Rain Light Rain
9:53 AM 51.1 °F 50.0 °F 96% 30.10 in 1.0 mi WNW 8.1 mph - 0.03 in Rain Light Rain
9:55 AM 51.1 °F 48.9 °F 92% 30.10 in 2.0 mi NW 8.1 mph - 0.00 in Rain Light Rain
10:06 AM 51.1 °F 48.9 °F 92% 30.11 in 6.0 mi NW 5.8 mph - 0.00 in Rain Light Rain
10:26 AM 52.0 °F 48.9 °F 89% 30.11 in 9.0 mi Variable 3.5 mph - 0.00 in Rain Light Rain
10:53 AM 55.0 °F 48.9 °F 80% 30.12 in 10.0 mi Variable 5.8 mph - 0.00 in   Overcast
11:53 AM 55.0 °F 46.0 °F 72% 30.14 in 10.0 mi North 5.8 mph - N/A   Overcast
12:10 PM 57.0 °F 46.0 °F 67% 30.14 in 10.0 mi North 8.1 mph - N/A   Overcast
12:53 PM 57.0 °F 46.0 °F 67% 30.15 in 10.0 mi North 5.8 mph - N/A   Mostly Cloudy
1:53 PM 59.0 °F 46.9 °F 64% 30.16 in 10.0 mi Variable 5.8 mph - N/A   Mostly Cloudy
2:53 PM 57.9 °F 46.9 °F 67% 30.17 in 10.0 mi North 6.9 mph - N/A   Overcast
3:53 PM 57.0 °F 46.9 °F 69% 30.17 in 7.0 mi North 8.1 mph - 0.01 in Rain Light Rain
4:53 PM 57.9 °F 45.0 °F 62% 30.17 in 10.0 mi North 9.2 mph - 0.00 in   Scattered Clouds
5:53 PM 57.9 °F 44.1 °F 60% 30.17 in 10.0 mi North 9.2 mph - N/A   Clear
6:53 PM 55.9 °F 45.0 °F 67% 30.17 in 10.0 mi North 8.1 mph - N/A   Clear
7:53 PM 55.9 °F 45.0 °F 67% 30.17 in 10.0 mi North 9.2 mph - N/A   Scattered Clouds
8:53 PM 53.1 °F 45.0 °F 74% 30.19 in 10.0 mi North 5.8 mph - N/A   Clear
9:53 PM 52.0 °F 44.1 °F 74% 30.19 in 10.0 mi North 5.8 mph - N/A   Clear
10:53 PM 51.1 °F 44.1 °F 77% 30.19 in 10.0 mi North 5.8 mph - N/A   Clear
11:53 PM 51.1 °F 44.1 °F 77% 30.19 in 10.0 mi North 4.6 mph - N/A   Partly Cloudy